contact:dominique.lefevre@mio.osupytheas.fr, maurice.libes@osupytheas.fr, didier.mallarino@osupytheas.fr
Project:EMSO http://www.emso-fr.org/EMSO-France
Depth: 2436.0 m
Title:EMSO Ligure Ouest : Data MII capteur AQUADOPP
Date,Latitude,Longitude,X_East,Y_North,Z_Up,Amplitude_X,Amplitude_Y,Amplitude_Z,Batterie,SoundSpeed,Heading,Pitch,Roll,Pressure,TIS,Speed,Direction
, degrees North, degrees East, m.s-1, m.s-1,m.s-1, 1, 1, 1, Volt, m.s-1, degree, degree, degree, dbar, degree_C, m.s-1, degree
2021-01-02T00:04:02,42.805,6.029,0.014,-0.01,0.008,105.0,107.0,103.0,13.3,1505.3,325.0,-0.8,1.8,2470.405,13.31,0.017,125.5
2021-01-02T00:07:02,42.805,6.029,0.001,-0.021,0.006,105.0,107.0,103.0,13.3,1505.3,328.4,-0.7,1.9,2470.392,13.31,0.021,177.3
2021-01-02T00:10:03,42.805,6.029,0.0,-0.029,0.013,103.0,106.0,103.0,13.4,1505.3,328.7,-0.7,1.8,2470.372,13.32,0.028,180.0
2021-01-02T00:13:03,42.805,6.029,0.019,-0.023,0.018,104.0,106.0,102.0,13.4,1505.3,326.1,-0.7,1.8,2470.371,13.32,0.029,140.4
2021-01-02T00:16:03,42.805,6.029,0.01,-0.001,0.012,107.0,107.0,101.0,13.4,1505.3,322.8,-0.7,1.8,2470.36,13.32,0.01,95.7
2021-01-02T00:19:03,42.805,6.029,0.023,-0.015,0.02,106.0,109.0,103.0,13.4,1505.3,324.7,-0.7,1.8,2470.38,13.33,0.027,123.1
2021-01-02T00:22:02,42.805,6.029,-0.011,-0.013,0.009,105.0,106.0,103.0,13.4,1505.3,326.5,-0.7,1.8,2470.358,13.33,0.017,220.2
2021-01-02T00:25:03,42.805,6.029,-0.009,-0.028,-0.02,107.0,105.0,102.0,13.4,1505.3,326.0,-0.7,1.8,2470.355,13.33,0.029,197.8
2021-01-02T00:28:03,42.805,6.029,-0.001,-0.028,0.0,106.0,106.0,102.0,13.3,1505.3,326.3,-0.7,1.9,2470.378,13.33,0.028,182.0
2021-01-02T00:31:03,42.805,6.029,0.004,-0.022,0.009,106.0,107.0,103.0,13.4,1505.3,324.1,-0.7,1.8,2470.329,13.33,0.022,169.7
2021-01-02T00:34:03,42.805,6.029,-0.014,0.001,-0.006,106.0,105.0,103.0,13.4,1505.3,326.7,-0.7,1.8,2470.339,13.33,0.014,274.1
2021-01-02T00:37:02,42.805,6.029,-0.007,-0.033,-0.02,107.0,107.0,102.0,13.3,1505.3,324.4,-0.7,1.8,2470.356,13.33,0.033,192.0
2021-01-02T00:40:03,42.805,6.029,0.007,-0.011,-0.016,106.0,107.0,102.0,13.3,1505.3,324.4,-0.7,1.8,2470.366,13.33,0.013,147.5
2021-01-02T00:43:03,42.805,6.029,0.003,-0.015,0.002,105.0,106.0,103.0,13.4,1505.3,326.7,-0.7,1.8,2470.322,13.33,0.015,168.7
2021-01-02T00:46:03,42.805,6.029,-0.024,-0.032,0.012,105.0,106.0,102.0,13.3,1505.3,325.5,-0.7,1.8,2470.321,13.33,0.04,216.9
2021-01-02T00:49:03,42.805,6.029,-0.011,-0.001,-0.008,106.0,106.0,102.0,13.3,1505.3,325.0,-0.7,1.8,2470.357,13.33,0.011,264.8
2021-01-02T00:52:02,42.805,6.029,0.005,-0.019,0.018,106.0,106.0,103.0,13.3,1505.3,327.6,-0.7,1.8,2470.343,13.33,0.019,165.3
2021-01-02T00:55:03,42.805,6.029,0.007,-0.021,0.018,106.0,108.0,103.0,13.3,1505.3,324.6,-0.7,1.8,2470.388,13.33,0.022,161.6
2021-01-02T00:58:03,42.805,6.029,-0.022,-0.019,-0.01,105.0,107.0,102.0,13.4,1505.3,325.0,-0.7,1.8,2470.305,13.33,0.029,229.2
2021-01-02T01:04:02,42.805,6.029,0.016,-0.018,-0.032,107.0,107.0,103.0,13.3,1505.3,327.2,-0.8,1.8,2470.417,13.31,0.024,138.4
2021-01-02T01:07:02,42.805,6.029,0.012,-0.003,-0.035,105.0,107.0,103.0,13.3,1505.3,327.1,-0.7,1.8,2470.344,13.32,0.012,104.0
2021-01-02T01:10:03,42.805,6.029,0.013,-0.012,-0.019,105.0,106.0,103.0,13.3,1505.3,325.6,-0.7,1.8,2470.353,13.32,0.017,132.7
2021-01-02T01:13:03,42.805,6.029,0.03,-0.01,0.061,107.0,107.0,103.0,13.4,1505.3,326.8,-0.7,1.8,2470.362,13.32,0.031,108.4
2021-01-02T01:16:03,42.805,6.029,0.038,-0.02,0.028,106.0,108.0,102.0,13.4,1505.3,323.5,-0.7,1.9,2470.314,13.32,0.042,117.8
2021-01-02T01:19:03,42.805,6.029,0.036,-0.018,0.044,106.0,106.0,102.0,13.3,1505.3,325.2,-0.7,1.8,2470.348,13.33,0.04,116.6
2021-01-02T01:22:02,42.805,6.029,0.017,-0.01,0.015,106.0,108.0,103.0,13.4,1505.3,325.6,-0.7,1.8,2470.367,13.33,0.019,120.5
2021-01-02T01:25:03,42.805,6.029,0.022,-0.013,0.028,106.0,107.0,103.0,13.3,1505.3,322.9,-0.7,1.8,2470.342,13.33,0.025,120.6
2021-01-02T01:28:03,42.805,6.029,0.04,-0.006,0.063,106.0,107.0,102.0,13.3,1505.3,323.0,-0.7,1.8,2470.309,13.33,0.04,98.5
2021-01-02T01:31:03,42.805,6.029,0.014,-0.02,0.002,106.0,107.0,102.0,13.4,1505.3,327.2,-0.7,1.8,2470.299,13.33,0.024,145.0
2021-01-02T01:34:03,42.805,6.029,0.011,-0.019,0.012,106.0,108.0,103.0,13.4,1505.3,325.3,-0.7,1.8,2470.304,13.33,0.021,149.9
2021-01-02T01:37:02,42.805,6.029,0.006,-0.008,0.028,105.0,107.0,103.0,13.4,1505.3,327.4,-0.7,1.8,2470.341,13.33,0.01,143.1
2021-01-02T01:40:03,42.805,6.029,0.001,-0.009,-0.02,104.0,107.0,102.0,13.4,1505.3,323.4,-0.7,1.9,2470.342,13.33,0.009,173.7
2021-01-02T01:43:03,42.805,6.029,-0.014,0.0,-0.014,106.0,107.0,102.0,13.4,1505.3,326.6,-0.7,1.8,2470.312,13.33,0.014,270.0
2021-01-02T01:46:03,42.805,6.029,0.004,-0.002,0.006,106.0,107.0,102.0,13.4,1505.3,324.3,-0.7,1.8,2470.274,13.33,0.004,116.6
2021-01-02T01:49:03,42.805,6.029,-0.005,-0.018,-0.01,105.0,107.0,103.0,13.4,1505.3,328.1,-0.7,1.8,2470.331,13.33,0.018,195.5
2021-01-02T01:52:03,42.805,6.029,0.023,-0.002,-0.004,107.0,108.0,102.0,13.4,1505.3,327.8,-0.7,1.8,2470.306,13.33,0.023,95.0
2021-01-02T01:55:03,42.805,6.029,0.006,-0.017,0.018,105.0,110.0,103.0,13.4,1505.3,323.2,-0.7,1.8,2470.314,13.33,0.018,160.6
2021-01-02T01:58:03,42.805,6.029,0.041,-0.022,0.004,107.0,108.0,102.0,13.4,1505.3,323.1,-0.8,1.8,2470.324,13.33,0.046,118.2
2021-01-02T02:04:02,42.805,6.029,0.009,-0.014,0.006,105.0,110.0,103.0,13.3,1505.3,324.4,-0.7,1.8,2470.36,13.31,0.016,147.3
2021-01-02T02:07:02,42.805,6.029,-0.005,-0.024,-0.039,106.0,109.0,103.0,13.4,1505.3,326.5,-0.7,1.8,2470.361,13.31,0.024,191.8
2021-01-02T02:10:03,42.805,6.029,0.016,-0.025,-0.021,105.0,108.0,103.0,13.4,1505.3,326.7,-0.7,1.8,2470.342,13.32,0.029,147.4
2021-01-02T02:13:03,42.805,6.029,0.015,-0.018,0.022,106.0,108.0,102.0,13.3,1505.3,326.9,-0.7,1.8,2470.305,13.32,0.023,140.2
2021-01-02T02:16:03,42.805,6.029,0.032,-0.01,0.002,107.0,107.0,102.0,13.4,1505.3,325.2,-0.7,1.8,2470.31,13.32,0.033,107.4
2021-01-02T02:19:03,42.805,6.029,0.042,0.003,0.007,106.0,107.0,102.0,13.4,1505.3,326.0,-0.7,1.8,2470.313,13.32,0.042,85.9
2021-01-02T02:22:02,42.805,6.029,0.02,-0.002,0.026,105.0,110.0,103.0,13.4,1505.3,327.1,-0.7,1.8,2470.303,13.32,0.02,95.7
2021-01-02T02:25:03,42.805,6.029,0.011,-0.016,-0.016,105.0,109.0,103.0,13.3,1505.3,326.4,-0.7,1.8,2470.329,13.32,0.019,145.5
2021-01-02T02:28:03,42.805,6.029,-0.01,-0.038,-0.039,106.0,109.0,102.0,13.3,1505.3,324.4,-0.7,1.8,2470.324,13.32,0.039,194.7
2021-01-02T02:31:03,42.805,6.029,-0.004,-0.008,-0.018,106.0,110.0,102.0,13.4,1505.3,325.4,-0.7,1.8,2470.354,13.32,0.008,206.6
2021-01-02T02:34:03,42.805,6.029,0.024,-0.007,0.016,106.0,109.0,103.0,13.4,1505.3,323.5,-0.7,1.8,2470.332,13.32,0.025,106.3
2021-01-02T02:37:03,42.805,6.029,0.011,-0.018,-0.006,107.0,111.0,101.0,13.4,1505.3,326.9,-0.7,1.8,2470.313,13.32,0.021,148.6
2021-01-02T02:40:03,42.805,6.029,0.016,-0.009,-0.009,106.0,110.0,103.0,13.4,1505.3,324.9,-0.7,1.8,2470.3,13.32,0.018,119.4
2021-01-02T02:43:03,42.805,6.029,0.016,-0.008,-0.013,106.0,108.0,103.0,13.4,1505.3,327.8,-0.7,1.8,2470.292,13.32,0.017,116.6
2021-01-02T02:46:03,42.805,6.029,0.038,-0.004,0.023,106.0,107.0,103.0,13.4,1505.3,328.1,-0.7,1.8,2470.268,13.32,0.038,96.0
2021-01-02T02:49:03,42.805,6.029,0.025,-0.013,0.006,106.0,108.0,102.0,13.3,1505.3,323.7,-0.7,1.8,2470.304,13.32,0.028,117.5
2021-01-02T02:52:02,42.805,6.029,0.031,-0.035,0.022,105.0,108.0,103.0,13.3,1505.3,324.2,-0.7,1.8,2470.333,13.32,0.046,138.5
2021-01-02T02:55:03,42.805,6.029,0.032,-0.007,0.074,107.0,108.0,102.0,13.4,1505.3,327.2,-0.7,1.8,2470.285,13.32,0.032,102.3
2021-01-02T02:58:03,42.805,6.029,0.03,-0.002,0.036,104.0,109.0,103.0,13.4,1505.3,323.0,-0.7,1.8,2470.296,13.32,0.03,93.8
2021-01-02T03:04:02,42.805,6.029,0.027,-0.018,-0.001,105.0,108.0,103.0,13.3,1505.2,327.1,-0.7,1.8,2470.299,13.3,0.032,123.7
2021-01-02T03:07:03,42.805,6.029,0.028,-0.003,-0.008,106.0,108.0,102.0,13.3,1505.3,325.7,-0.7,1.8,2470.318,13.31,0.028,96.1
2021-01-02T03:10:03,42.805,6.029,0.034,-0.002,-0.012,106.0,108.0,102.0,13.4,1505.3,326.7,-0.7,1.8,2470.29,13.31,0.034,93.4
2021-01-02T03:13:03,42.805,6.029,0.008,-0.01,-0.03,106.0,109.0,103.0,13.4,1505.3,324.6,-0.7,1.8,2470.351,13.32,0.012,141.3
2021-01-02T03:16:03,42.805,6.029,0.038,-0.008,0.007,106.0,110.0,102.0,13.4,1505.3,328.0,-0.7,1.8,2470.306,13.32,0.038,101.9
2021-01-02T03:19:03,42.805,6.029,0.05,0.001,-0.012,105.0,109.0,103.0,13.4,1505.3,325.9,-0.7,1.8,2470.299,13.32,0.05,88.9
2021-01-02T03:22:03,42.805,6.029,0.015,0.005,-0.009,106.0,108.0,103.0,13.4,1505.3,323.4,-0.7,1.8,2470.283,13.32,0.015,71.6
2021-01-02T03:25:03,42.805,6.029,0.058,-0.006,0.019,104.0,107.0,103.0,13.4,1505.3,326.2,-0.7,1.8,2470.309,13.32,0.058,95.9
2021-01-02T03:28:03,42.805,6.029,0.038,-0.004,0.016,105.0,108.0,102.0,13.4,1505.3,324.0,-0.7,1.8,2470.345,13.32,0.038,96.0
2021-01-02T03:31:03,42.805,6.029,0.046,-0.003,0.01,106.0,108.0,103.0,13.3,1505.3,328.1,-0.7,1.8,2470.288,13.32,0.046,93.7
2021-01-02T03:34:03,42.805,6.029,0.041,-0.004,-0.006,105.0,108.0,102.0,13.4,1505.3,325.8,-0.7,1.9,2470.326,13.32,0.041,95.6
2021-01-02T03:37:03,42.805,6.029,0.016,-0.025,0.014,107.0,108.0,101.0,13.4,1505.3,325.0,-0.7,1.8,2470.284,13.32,0.029,147.4
2021-01-02T03:40:03,42.805,6.029,0.027,0.001,0.003,105.0,106.0,102.0,13.3,1505.3,324.8,-0.7,1.8,2470.304,13.32,0.027,87.9
2021-01-02T03:43:03,42.805,6.029,0.061,-0.023,-0.027,105.0,109.0,103.0,13.3,1505.3,327.6,-0.7,1.8,2470.313,13.32,0.065,110.7
2021-01-02T03:49:02,42.805,6.029,0.035,-0.006,0.003,106.0,108.0,102.0,13.4,1505.2,325.5,-0.7,1.8,2470.36,13.3,0.035,99.7
2021-01-02T03:52:03,42.805,6.029,0.039,-0.029,-0.058,105.0,111.0,102.0,13.4,1505.3,328.1,-0.7,1.8,2470.299,13.31,0.048,126.6
2021-01-02T03:55:03,42.805,6.029,0.022,-0.025,-0.048,105.0,109.0,102.0,13.4,1505.3,323.5,-0.7,1.8,2470.331,13.31,0.033,138.7
2021-01-02T03:58:03,42.805,6.029,0.02,-0.003,-0.029,105.0,109.0,102.0,13.3,1505.3,326.6,-0.7,1.9,2470.327,13.32,0.02,98.5
2021-01-02T04:04:03,42.805,6.029,0.025,-0.021,-0.011,106.0,109.0,102.0,13.3,1505.2,324.9,-0.7,1.8,2470.368,13.3,0.032,130.0
2021-01-02T04:07:03,42.805,6.029,0.027,-0.002,0.015,105.0,108.0,102.0,13.4,1505.3,324.0,-0.7,1.8,2470.292,13.31,0.027,94.2
2021-01-02T04:10:03,42.805,6.029,0.021,-0.01,-0.045,105.0,109.0,102.0,13.4,1505.3,325.3,-0.7,1.8,2470.347,13.31,0.023,115.5
2021-01-02T04:13:03,42.805,6.029,0.024,-0.024,-0.013,107.0,108.0,101.0,13.3,1505.3,324.2,-0.7,1.8,2470.311,13.32,0.033,135.0
2021-01-02T04:16:03,42.805,6.029,0.028,-0.026,-0.028,106.0,109.0,103.0,13.4,1505.3,326.5,-0.7,1.8,2470.321,13.32,0.038,132.9
2021-01-02T04:19:03,42.805,6.029,0.033,-0.005,0.009,106.0,107.0,102.0,13.4,1505.3,325.1,-0.7,1.8,2470.335,13.32,0.033,98.6
2021-01-02T04:22:03,42.805,6.029,0.029,0.013,0.016,105.0,108.0,103.0,13.4,1505.3,327.6,-0.7,1.8,2470.339,13.32,0.031,65.9
2021-01-02T04:25:03,42.805,6.029,0.012,-0.029,0.011,105.0,109.0,102.0,13.4,1505.3,327.5,-0.7,1.8,2470.339,13.32,0.031,157.5
2021-01-02T04:28:03,42.805,6.029,0.029,-0.032,0.0,104.0,108.0,102.0,13.4,1505.3,324.0,-0.7,1.8,2470.3,13.32,0.043,137.8
2021-01-02T04:31:03,42.805,6.029,0.026,-0.026,-0.013,105.0,108.0,102.0,13.4,1505.3,324.3,-0.7,1.8,2470.349,13.32,0.036,135.0
2021-01-02T04:34:03,42.805,6.029,0.038,-0.015,0.024,105.0,108.0,102.0,13.4,1505.3,328.1,-0.7,1.8,2470.302,13.32,0.04,111.5
2021-01-02T04:37:03,42.805,6.029,0.033,0.0,0.016,105.0,107.0,103.0,13.3,1505.3,323.0,-0.7,1.8,2470.299,13.32,0.033,90.0
2021-01-02T04:40:03,42.805,6.029,0.025,-0.017,-0.002,105.0,109.0,103.0,13.4,1505.3,326.5,-0.7,1.8,2470.338,13.32,0.03,124.2
2021-01-02T04:43:03,42.805,6.029,0.024,-0.013,0.014,105.0,109.0,102.0,13.4,1505.3,325.3,-0.7,1.8,2470.296,13.32,0.027,118.4
2021-01-02T04:46:03,42.805,6.029,0.056,-0.011,0.008,105.0,108.0,102.0,13.4,1505.3,324.0,-0.8,1.8,2470.316,13.32,0.057,101.1
2021-01-02T04:49:03,42.805,6.029,0.051,-0.017,0.012,105.0,109.0,102.0,13.4,1505.3,325.0,-0.7,1.8,2470.316,13.32,0.053,108.4
2021-01-02T04:52:03,42.805,6.029,0.046,-0.036,0.015,106.0,108.0,102.0,13.4,1505.3,328.0,-0.7,1.8,2470.323,13.32,0.058,128.0
2021-01-02T04:55:03,42.805,6.029,0.031,-0.043,-0.002,105.0,109.0,102.0,13.4,1505.3,323.2,-0.7,1.8,2470.329,13.32,0.053,144.2
2021-01-02T04:58:03,42.805,6.029,0.035,-0.018,-0.022,105.0,108.0,103.0,13.4,1505.3,323.2,-0.7,1.8,2470.316,13.32,0.039,117.2
2021-01-02T05:04:02,42.805,6.029,0.026,-0.004,-0.018,107.0,108.0,102.0,13.4,1505.2,326.2,-0.7,1.8,2470.372,13.3,0.026,98.7
2021-01-02T05:07:03,42.805,6.029,0.061,-0.021,0.02,107.0,108.0,103.0,13.4,1505.3,326.5,-0.7,1.8,2470.373,13.31,0.064,109.0
2021-01-02T05:10:03,42.805,6.029,0.045,-0.031,-0.016,105.0,108.0,102.0,13.4,1505.3,324.5,-0.7,1.8,2470.354,13.31,0.054,124.6
2021-01-02T05:13:03,42.805,6.029,0.04,-0.016,0.009,107.0,107.0,102.0,13.4,1505.3,324.6,-0.7,1.8,2470.344,13.32,0.043,111.8
2021-01-02T05:16:03,42.805,6.029,0.041,-0.014,-0.007,105.0,108.0,104.0,13.4,1505.3,325.4,-0.7,1.8,2470.37,13.32,0.043,108.9
2021-01-02T05:19:03,42.805,6.029,0.039,-0.018,0.014,106.0,108.0,103.0,13.4,1505.3,324.5,-0.7,1.8,2470.368,13.32,0.042,114.8
2021-01-02T05:22:03,42.805,6.029,0.046,-0.028,0.001,106.0,108.0,103.0,13.3,1505.3,325.5,-0.7,1.8,2470.348,13.32,0.053,121.3
2021-01-02T05:25:03,42.805,6.029,0.034,-0.036,-0.028,106.0,107.0,102.0,13.3,1505.3,322.8,-0.7,1.8,2470.378,13.32,0.049,136.6
2021-01-02T05:28:03,42.805,6.029,0.04,-0.027,0.018,106.0,107.0,102.0,13.4,1505.3,326.7,-0.7,1.8,2470.367,13.32,0.048,124.0
2021-01-02T05:31:03,42.805,6.029,0.05,-0.025,0.013,106.0,109.0,102.0,13.3,1505.3,324.5,-0.7,1.9,2470.367,13.32,0.055,116.6
2021-01-02T05:34:03,42.805,6.029,0.029,-0.008,0.016,106.0,108.0,103.0,13.4,1505.3,323.0,-0.7,1.8,2470.355,13.32,0.03,105.4
2021-01-02T05:37:03,42.805,6.029,0.01,-0.028,-0.012,106.0,108.0,103.0,13.4,1505.3,325.5,-0.7,1.8,2470.333,13.32,0.029,160.4
2021-01-02T05:40:03,42.805,6.029,0.041,-0.021,0.034,106.0,108.0,103.0,13.4,1505.3,324.2,-0.7,1.8,2470.351,13.32,0.046,117.1
2021-01-02T05:43:03,42.805,6.029,0.04,-0.019,0.03,106.0,108.0,102.0,13.4,1505.3,323.1,-0.7,1.9,2470.348,13.32,0.044,115.4
2021-01-02T05:46:03,42.805,6.029,0.023,-0.028,0.0,105.0,107.0,103.0,13.4,1505.3,326.1,-0.7,1.8,2470.385,13.32,0.036,140.6
2021-01-02T05:49:03,42.805,6.029,0.013,-0.01,-0.003,105.0,109.0,104.0,13.4,1505.3,324.4,-0.7,1.8,2470.37,13.32,0.016,127.6
2021-01-02T05:52:03,42.805,6.029,0.045,-0.005,0.016,106.0,108.0,103.0,13.3,1505.3,327.3,-0.7,1.8,2470.372,13.32,0.045,96.3
2021-01-02T05:55:03,42.805,6.029,0.003,-0.002,0.011,105.0,108.0,102.0,13.3,1505.3,324.4,-0.7,1.8,2470.408,13.32,0.003,123.7
2021-01-02T05:58:03,42.805,6.029,0.041,-0.019,0.006,105.0,108.0,102.0,13.4,1505.3,327.1,-0.7,1.8,2470.38,13.32,0.045,114.9
2021-01-02T06:04:03,42.805,6.029,0.044,-0.023,0.015,106.0,107.0,103.0,13.3,1505.2,325.9,-0.8,1.8,2470.403,13.3,0.049,117.6
2021-01-02T06:07:03,42.805,6.029,0.035,-0.009,0.007,106.0,107.0,104.0,13.3,1505.3,326.1,-0.7,1.8,2470.424,13.31,0.036,104.4
2021-01-02T06:10:03,42.805,6.029,0.042,-0.011,-0.005,106.0,108.0,103.0,13.4,1505.3,325.0,-0.7,1.8,2470.413,13.31,0.043,104.7
2021-01-02T06:13:03,42.805,6.029,0.045,-0.012,0.004,105.0,108.0,103.0,13.4,1505.3,327.8,-0.7,1.8,2470.403,13.32,0.046,104.9
2021-01-02T06:16:03,42.805,6.029,0.01,-0.022,0.03,105.0,106.0,103.0,13.4,1505.3,326.2,-0.7,1.8,2470.383,13.32,0.024,155.6
2021-01-02T06:19:03,42.805,6.029,0.06,-0.03,0.002,106.0,108.0,101.0,13.4,1505.3,328.4,-0.6,1.8,2470.424,13.32,0.067,116.6
2021-01-02T06:22:03,42.805,6.029,0.039,-0.015,0.019,106.0,106.0,101.0,13.4,1505.3,325.9,-0.7,1.8,2470.388,13.32,0.041,111.0
2021-01-02T06:25:03,42.805,6.029,0.041,-0.015,-0.018,105.0,108.0,101.0,13.4,1505.3,325.7,-0.7,1.8,2470.412,13.32,0.043,110.1
2021-01-02T06:28:03,42.805,6.029,0.034,-0.027,0.032,104.0,106.0,103.0,13.4,1505.3,327.2,-0.7,1.8,2470.407,13.32,0.043,128.5
2021-01-02T06:31:03,42.805,6.029,0.032,-0.029,0.002,105.0,108.0,102.0,13.4,1505.3,324.3,-0.7,1.8,2470.459,13.32,0.043,132.2
2021-01-02T06:34:03,42.805,6.029,0.031,-0.041,-0.023,104.0,107.0,103.0,13.4,1505.3,326.5,-0.7,1.8,2470.435,13.32,0.051,142.9
2021-01-02T06:37:03,42.805,6.029,0.001,-0.017,0.008,106.0,107.0,102.0,13.4,1505.3,324.5,-0.7,1.8,2470.403,13.32,0.017,176.6
2021-01-02T06:40:03,42.805,6.029,0.061,-0.015,-0.003,105.0,107.0,102.0,13.3,1505.3,327.6,-0.7,1.8,2470.415,13.32,0.062,103.8
2021-01-02T06:43:03,42.805,6.029,0.022,-0.027,-0.009,105.0,107.0,101.0,13.3,1505.3,326.0,-0.7,1.8,2470.408,13.32,0.034,140.8
2021-01-02T06:46:03,42.805,6.029,0.04,-0.013,0.058,104.0,107.0,102.0,13.4,1505.3,325.7,-0.7,1.8,2470.472,13.32,0.042,108.0
2021-01-02T06:49:03,42.805,6.029,0.024,-0.034,-0.045,106.0,106.0,103.0,13.3,1505.3,326.5,-0.7,1.8,2470.418,13.32,0.041,144.8
2021-01-02T06:52:03,42.805,6.029,0.051,-0.041,-0.001,105.0,106.0,102.0,13.3,1505.3,322.6,-0.7,1.8,2470.434,13.32,0.065,128.8
2021-01-02T06:55:03,42.805,6.029,0.044,-0.018,0.011,103.0,106.0,103.0,13.3,1505.3,324.7,-0.7,1.8,2470.464,13.32,0.047,112.2
2021-01-02T06:58:03,42.805,6.029,0.041,-0.029,0.008,105.0,106.0,102.0,13.4,1505.3,324.7,-0.7,1.8,2470.518,13.32,0.05,125.3
2021-01-02T07:04:03,42.805,6.029,0.028,-0.027,0.018,105.0,106.0,103.0,13.4,1505.2,328.3,-0.8,1.8,2470.513,13.3,0.038,134.0
2021-01-02T07:07:03,42.805,6.029,0.041,-0.03,0.036,105.0,106.0,102.0,13.4,1505.3,326.8,-0.7,1.8,2470.474,13.31,0.05,126.2
2021-01-02T07:10:03,42.805,6.029,0.017,-0.033,0.015,105.0,106.0,102.0,13.3,1505.3,328.0,-0.7,1.8,2470.438,13.31,0.037,152.7
2021-01-02T07:13:03,42.805,6.029,0.02,-0.038,-0.028,105.0,107.0,102.0,13.4,1505.3,326.4,-0.7,1.8,2470.506,13.31,0.042,152.2
2021-01-02T07:16:03,42.805,6.029,0.026,-0.041,-0.027,106.0,106.0,102.0,13.3,1505.3,325.9,-0.7,1.8,2470.489,13.32,0.048,147.6
2021-01-02T07:19:03,42.805,6.029,0.052,-0.01,0.023,106.0,106.0,101.0,13.3,1505.3,325.3,-0.7,1.8,2470.491,13.32,0.052,100.9
2021-01-02T07:22:03,42.805,6.029,0.036,-0.036,0.02,105.0,107.0,103.0,13.3,1505.3,324.8,-0.7,1.8,2470.542,13.32,0.05,135.0
2021-01-02T07:25:03,42.805,6.029,0.039,-0.018,-0.003,105.0,106.0,102.0,13.3,1505.3,324.0,-0.7,1.8,2470.492,13.32,0.042,114.8
2021-01-02T07:28:03,42.805,6.029,0.042,-0.022,0.011,106.0,105.0,102.0,13.3,1505.3,327.4,-0.7,1.8,2470.505,13.32,0.047,117.6
2021-01-02T07:31:03,42.805,6.029,0.015,-0.029,0.02,105.0,107.0,102.0,13.3,1505.3,323.6,-0.7,1.8,2470.464,13.32,0.032,152.6
2021-01-02T07:34:03,42.805,6.029,0.034,-0.029,0.003,104.0,105.0,103.0,13.3,1505.3,324.9,-0.7,1.8,2470.515,13.32,0.044,130.5
2021-01-02T07:37:03,42.805,6.029,0.026,-0.016,0.016,104.0,106.0,102.0,13.3,1505.3,326.1,-0.7,1.8,2470.541,13.32,0.03,121.6
2021-01-02T07:40:03,42.805,6.029,0.052,-0.035,0.025,104.0,107.0,102.0,13.4,1505.3,327.5,-0.7,1.9,2470.469,13.32,0.062,123.9
2021-01-02T07:43:03,42.805,6.029,0.043,-0.032,-0.023,104.0,105.0,101.0,13.4,1505.3,325.7,-0.7,1.8,2470.506,13.32,0.053,126.7
2021-01-02T07:46:03,42.805,6.029,0.04,-0.039,0.001,105.0,106.0,102.0,13.4,1505.3,327.6,-0.7,1.8,2470.492,13.32,0.055,134.3
2021-01-02T07:49:03,42.805,6.029,0.04,-0.038,0.002,104.0,105.0,101.0,13.4,1505.3,325.3,-0.7,1.8,2470.481,13.32,0.055,133.5
2021-01-02T07:52:03,42.805,6.029,0.028,-0.031,-0.025,105.0,106.0,101.0,13.4,1505.3,324.5,-0.7,1.8,2470.535,13.32,0.041,137.9
2021-01-02T07:55:03,42.805,6.029,0.042,-0.017,-0.015,105.0,106.0,101.0,13.4,1505.3,326.5,-0.7,1.8,2470.525,13.32,0.045,112.0
2021-01-02T07:58:03,42.805,6.029,0.053,-0.022,0.016,105.0,106.0,101.0,13.3,1505.3,323.4,-0.7,1.8,2470.557,13.32,0.057,112.5
2021-01-02T08:04:03,42.805,6.029,0.038,-0.025,-0.028,104.0,106.0,101.0,13.4,1505.2,328.1,-0.7,1.8,2470.572,13.3,0.045,123.3
2021-01-02T08:07:03,42.805,6.029,0.032,-0.039,-0.037,105.0,107.0,101.0,13.4,1505.3,326.0,-0.7,1.8,2470.563,13.31,0.05,140.6
2021-01-02T08:10:03,42.805,6.029,0.025,-0.031,0.03,104.0,106.0,101.0,13.4,1505.3,327.4,-0.7,1.8,2470.548,13.31,0.039,141.1
2021-01-02T08:13:03,42.805,6.029,0.072,-0.043,0.022,104.0,107.0,102.0,13.3,1505.3,325.0,-0.7,1.8,2470.56,13.32,0.083,120.8
2021-01-02T08:16:03,42.805,6.029,0.023,-0.034,-0.015,104.0,106.0,101.0,13.4,1505.3,325.4,-0.7,1.8,2470.537,13.32,0.041,145.9
2021-01-02T08:19:03,42.805,6.029,0.056,-0.015,0.035,104.0,105.0,100.0,13.4,1505.3,327.5,-0.7,1.8,2470.567,13.32,0.057,105.0
2021-01-02T08:22:03,42.805,6.029,0.039,-0.053,0.003,103.0,106.0,101.0,13.4,1505.3,327.1,-0.7,1.9,2470.549,13.32,0.065,143.7
2021-01-02T08:25:03,42.805,6.029,0.022,-0.012,0.011,104.0,104.0,101.0,13.4,1505.3,323.2,-0.7,1.9,2470.543,13.32,0.025,118.6
2021-01-02T08:28:03,42.805,6.029,0.034,-0.039,-0.002,104.0,105.0,102.0,13.3,1505.3,324.7,-0.7,1.8,2470.522,13.32,0.051,138.9
2021-01-02T08:31:03,42.805,6.029,0.019,-0.036,0.028,105.0,105.0,101.0,13.3,1505.3,325.5,-0.7,1.8,2470.554,13.32,0.04,152.2
2021-01-02T08:34:03,42.805,6.029,0.031,-0.022,-0.01,104.0,106.0,102.0,13.4,1505.3,328.1,-0.7,1.8,2470.569,13.32,0.038,125.4
2021-01-02T08:37:03,42.805,6.029,0.055,-0.03,0.001,105.0,105.0,101.0,13.4,1505.3,323.3,-0.7,1.8,2470.561,13.32,0.062,118.6
2021-01-02T08:40:03,42.805,6.029,0.03,-0.022,-0.009,104.0,105.0,101.0,13.3,1505.3,322.8,-0.7,1.8,2470.531,13.32,0.037,126.3
2021-01-02T08:43:03,42.805,6.029,0.026,-0.041,-0.015,105.0,105.0,102.0,13.4,1505.3,325.0,-0.7,1.8,2470.545,13.32,0.048,147.6
2021-01-02T08:46:03,42.805,6.029,0.008,-0.05,-0.025,104.0,106.0,102.0,13.4,1505.3,324.5,-0.7,1.8,2470.538,13.32,0.05,170.9
2021-01-02T08:49:03,42.805,6.029,0.046,-0.038,0.027,105.0,105.0,101.0,13.4,1505.3,327.9,-0.7,1.8,2470.504,13.32,0.059,129.6
2021-01-02T08:52:03,42.805,6.029,0.037,-0.042,-0.028,104.0,106.0,102.0,13.3,1505.3,327.4,-0.7,1.8,2470.542,13.32,0.055,138.6
2021-01-02T08:55:03,42.805,6.029,0.037,-0.029,-0.018,104.0,106.0,102.0,13.4,1505.3,327.7,-0.7,1.8,2470.578,13.32,0.047,128.1
2021-01-02T08:58:03,42.805,6.029,0.019,-0.036,-0.027,105.0,107.0,101.0,13.4,1505.3,328.2,-0.7,1.9,2470.577,13.32,0.04,152.2
2021-01-02T09:04:03,42.805,6.029,0.018,-0.054,-0.012,103.0,104.0,102.0,13.4,1505.2,327.9,-0.7,1.8,2470.596,13.3,0.056,161.6
2021-01-02T09:07:03,42.805,6.029,0.015,-0.029,0.031,105.0,105.0,101.0,13.4,1505.3,327.6,-0.7,1.8,2470.585,13.31,0.032,152.6
2021-01-02T09:10:03,42.805,6.029,0.044,-0.019,0.0,104.0,105.0,101.0,13.4,1505.3,324.5,-0.7,1.8,2470.573,13.31,0.047,113.4
2021-01-02T09:13:03,42.805,6.029,0.062,-0.035,0.013,104.0,106.0,102.0,13.3,1505.3,323.0,-0.7,1.9,2470.596,13.32,0.071,119.4
2021-01-02T09:16:03,42.805,6.029,0.041,-0.026,0.0,104.0,106.0,105.0,13.3,1505.3,324.8,-0.7,1.8,2470.587,13.32,0.048,122.4
2021-01-02T09:19:03,42.805,6.029,0.037,-0.037,-0.014,103.0,106.0,103.0,13.3,1505.3,324.1,-0.7,1.8,2470.539,13.32,0.052,135.0
2021-01-02T09:22:03,42.805,6.029,0.008,-0.025,-0.009,106.0,108.0,101.0,13.4,1505.3,326.7,-0.7,1.9,2470.591,13.32,0.026,162.3
2021-01-02T09:25:03,42.805,6.029,0.046,-0.02,-0.002,105.0,105.0,101.0,13.3,1505.3,325.3,-0.7,1.9,2470.586,13.32,0.05,113.5
2021-01-02T09:28:03,42.805,6.029,0.063,-0.026,0.034,105.0,105.0,102.0,13.4,1505.3,323.9,-0.7,1.9,2470.572,13.32,0.068,112.4
2021-01-02T09:31:03,42.805,6.029,0.022,-0.027,-0.018,105.0,106.0,102.0,13.4,1505.3,326.9,-0.7,1.8,2470.537,13.32,0.034,140.8
2021-01-02T09:34:03,42.805,6.029,0.038,-0.051,0.05,104.0,107.0,101.0,13.4,1505.3,328.0,-0.7,1.8,2470.604,13.32,0.063,143.3
2021-01-02T09:37:03,42.805,6.029,0.054,-0.047,0.034,105.0,105.0,102.0,13.4,1505.3,324.0,-0.7,1.8,2470.578,13.32,0.071,131.0
2021-01-02T09:40:03,42.805,6.029,0.046,-0.039,0.014,104.0,105.0,102.0,13.4,1505.3,324.5,-0.7,1.8,2470.528,13.32,0.06,130.3
2021-01-02T09:43:03,42.805,6.029,0.026,-0.044,-0.021,104.0,106.0,101.0,13.4,1505.3,322.7,-0.7,1.8,2470.581,13.32,0.051,149.4
2021-01-02T09:46:03,42.805,6.029,0.009,-0.017,0.002,106.0,107.0,101.0,13.4,1505.3,326.3,-0.7,1.8,2470.579,13.32,0.019,152.1
2021-01-02T09:49:03,42.805,6.029,-0.011,-0.024,0.03,105.0,106.0,102.0,13.4,1505.3,327.9,-0.7,1.8,2470.594,13.32,0.026,204.6
2021-01-02T09:52:03,42.805,6.029,0.021,-0.05,-0.006,105.0,106.0,101.0,13.3,1505.3,326.8,-0.7,1.8,2470.534,13.32,0.054,157.2
2021-01-02T09:55:03,42.805,6.029,0.03,-0.047,0.012,105.0,106.0,101.0,13.4,1505.3,324.7,-0.7,1.8,2470.555,13.32,0.055,147.4
2021-01-02T09:58:03,42.805,6.029,0.053,-0.059,-0.008,106.0,105.0,101.0,13.4,1505.3,326.5,-0.7,1.8,2470.555,13.32,0.079,138.1